Time,TemperatureF,DewpointF,PressureIn,WindDirection,WindDirectionDegrees,WindSpeedMPH,WindSpeedGustMPH,Humidity,HourlyPrecipIn,Conditions,Clouds,dailyrainin,SoftwareType,DateUTC
2013-05-23 00:00:00,64.3,63.1,29.90,SSW,200,0.0,0.0,96,0.00,RA,,0.00,WeatherDisplay:10.37,2013-05-23 04:00:00,
2013-05-23 00:01:00,64.3,63.1,29.90,SSW,200,0.0,0.0,96,0.00,RA,,0.00,WeatherDisplay:10.37,2013-05-23 04:01:00,
2013-05-23 00:06:00,64.2,63.0,29.90,SSW,200,0.0,0.0,96,0.00,RA,,0.00,WeatherDisplay:10.37,2013-05-23 04:06:00,
2013-05-23 00:11:00,64.2,63.0,29.90,SSW,200,0.0,0.0,96,0.00,BKN,,0.00,WeatherDisplay:10.37,2013-05-23 04:11:00,
2013-05-23 00:16:00,64.2,63.0,29.90,SSW,200,0.0,0.0,96,0.00,BKN,,0.00,WeatherDisplay:10.37,2013-05-23 04:16:00,
2013-05-23 00:21:00,64.2,63.0,29.90,SSW,200,0.0,0.0,96,0.00,BKN,,0.00,WeatherDisplay:10.37,2013-05-23 04:21:00,
2013-05-23 00:26:00,64.3,63.1,29.90,SSW,200,0.0,0.0,96,0.00,BKN,,0.00,WeatherDisplay:10.37,2013-05-23 04:26:00,
2013-05-23 00:31:00,64.4,63.2,29.90,WSW,258,1.2,2.3,96,0.00,BKN,,0.00,WeatherDisplay:10.37,2013-05-23 04:31:00,
2013-05-23 00:36:00,64.5,63.6,29.90,West,265,0.0,0.0,97,0.00,BKN,,0.00,WeatherDisplay:10.37,2013-05-23 04:36:00,
2013-05-23 00:41:00,64.5,63.6,29.90,West,265,0.0,0.0,97,0.00,BKN,,0.00,WeatherDisplay:10.37,2013-05-23 04:41:00,
2013-05-23 00:46:00,64.5,63.6,29.90,SW,226,0.2,1.1,97,0.00,BKN,,0.00,WeatherDisplay:10.37,2013-05-23 04:46:00,
2013-05-23 00:51:00,64.5,63.6,29.90,SW,226,0.0,1.1,97,0.00,BKN,,0.00,WeatherDisplay:10.37,2013-05-23 04:51:00,
2013-05-23 00:56:00,64.5,63.6,29.90,SW,226,0.8,2.3,97,0.00,BKN,,0.00,WeatherDisplay:10.37,2013-05-23 04:56:00,
2013-05-23 01:01:00,64.6,63.7,29.89,South,178,0.2,3.5,97,0.00,BKN,,0.00,WeatherDisplay:10.37,2013-05-23 05:01:00,
2013-05-23 01:06:00,64.8,63.6,29.89,South,178,0.0,1.1,96,0.00,BKN,,0.00,WeatherDisplay:10.37,2013-05-23 05:06:00,
2013-05-23 01:11:00,64.8,63.6,29.89,South,178,0.0,0.0,96,0.00,BKN,,0.00,WeatherDisplay:10.37,2013-05-23 05:11:00,
2013-05-23 01:16:00,65.0,63.8,29.89,SW,216,0.0,0.0,96,0.00,BKN,,0.00,WeatherDisplay:10.37,2013-05-23 05:16:00,
2013-05-23 01:21:00,65.0,63.8,29.89,SW,216,0.0,1.0,96,0.00,BKN,,0.00,WeatherDisplay:10.37,2013-05-23 05:21:00,
2013-05-23 01:26:00,65.1,63.9,29.89,SW,216,0.0,0.0,96,0.01,RA,,0.01,WeatherDisplay:10.37,2013-05-23 05:26:00,
2013-05-23 01:31:00,65.1,63.9,29.88,SW,216,0.0,0.0,96,0.01,RA,,0.01,WeatherDisplay:10.37,2013-05-23 05:31:00,
2013-05-23 01:36:00,65.0,63.8,29.88,SW,216,0.0,0.0,96,0.01,BKN,,0.01,WeatherDisplay:10.37,2013-05-23 05:36:00,
2013-05-23 01:41:00,65.1,63.9,29.88,SW,216,0.0,0.0,96,0.01,BKN,,0.01,WeatherDisplay:10.37,2013-05-23 05:41:00,
2013-05-23 01:46:00,65.1,64.2,29.88,SW,216,0.0,0.0,97,0.01,BKN,,0.01,WeatherDisplay:10.37,2013-05-23 05:46:00,
2013-05-23 01:51:00,65.1,64.2,29.88,SW,216,0.0,0.0,97,0.01,BKN,,0.01,WeatherDisplay:10.37,2013-05-23 05:51:00,
2013-05-23 01:56:00,65.1,64.2,29.88,SW,216,0.0,0.0,97,0.01,BKN,,0.01,WeatherDisplay:10.37,2013-05-23 05:56:00,
2013-05-23 02:02:00,65.2,64.3,29.88,South,180,0.6,2.0,97,0.01,OVC,,0.01,WeatherDisplay:10.37,2013-05-23 06:02:00,
2013-05-23 02:07:00,65.2,64.3,29.88,South,180,0.0,0.0,97,0.01,OVC,,0.01,WeatherDisplay:10.37,2013-05-23 06:07:00,
2013-05-23 02:12:00,65.1,64.2,29.88,South,180,0.0,0.0,97,0.01,OVC,,0.01,WeatherDisplay:10.37,2013-05-23 06:12:00,
2013-05-23 02:17:00,65.1,64.2,29.88,South,180,0.0,0.0,97,0.01,OVC,,0.01,WeatherDisplay:10.37,2013-05-23 06:17:00,
2013-05-23 02:22:00,65.1,64.2,29.88,South,180,0.0,0.0,97,0.01,OVC,,0.01,WeatherDisplay:10.37,2013-05-23 06:22:00,
2013-05-23 02:27:00,65.2,64.3,29.88,South,180,0.0,0.0,97,0.00,OVC,,0.01,WeatherDisplay:10.37,2013-05-23 06:27:00,
2013-05-23 02:32:00,65.2,64.3,29.88,South,180,0.0,0.0,97,0.00,OVC,,0.01,WeatherDisplay:10.37,2013-05-23 06:32:00,
2013-05-23 02:37:00,65.2,64.3,29.88,South,180,0.0,0.0,97,0.00,OVC,,0.01,WeatherDisplay:10.37,2013-05-23 06:37:00,
2013-05-23 02:42:00,65.2,64.3,29.88,South,180,0.1,1.1,97,0.00,OVC,,0.01,WeatherDisplay:10.37,2013-05-23 06:42:00,
2013-05-23 02:47:00,65.2,64.3,29.88,SSW,211,0.6,2.3,97,0.00,OVC,,0.01,WeatherDisplay:10.37,2013-05-23 06:47:00,
2013-05-23 02:52:00,65.3,64.4,29.88,SSW,211,0.0,0.0,97,0.00,OVC,,0.01,WeatherDisplay:10.37,2013-05-23 06:52:00,
2013-05-23 02:57:00,65.2,64.3,29.88,SSW,211,0.0,0.0,97,0.00,OVC,,0.01,WeatherDisplay:10.37,2013-05-23 06:57:00,
2013-05-23 03:02:00,65.0,63.8,29.88,SSW,211,0.8,2.3,96,0.00,BKN,,0.01,WeatherDisplay:10.37,2013-05-23 07:02:00,
2013-05-23 03:07:00,64.8,63.6,29.88,SSW,202,0.3,1.1,96,0.00,BKN,,0.01,WeatherDisplay:10.37,2013-05-23 07:07:00,
2013-05-23 03:12:00,64.7,63.5,29.88,SSW,198,1.8,3.5,96,0.00,BKN,,0.01,WeatherDisplay:10.37,2013-05-23 07:12:00,
2013-05-23 03:17:00,64.7,63.8,29.88,SSW,196,1.0,2.3,97,0.00,BKN,,0.01,WeatherDisplay:10.37,2013-05-23 07:17:00,
2013-05-23 03:22:00,64.7,63.8,29.88,South,190,0.9,2.3,97,0.00,BKN,,0.01,WeatherDisplay:10.37,2013-05-23 07:22:00,
2013-05-23 03:27:00,64.7,63.8,29.88,SSW,192,1.7,2.3,97,0.00,BKN,,0.01,WeatherDisplay:10.37,2013-05-23 07:27:00,
2013-05-23 03:32:00,64.8,63.9,29.88,South,188,1.6,3.5,97,0.00,BKN,,0.01,WeatherDisplay:10.37,2013-05-23 07:32:00,
2013-05-23 03:37:00,64.9,64.0,29.88,SSW,211,1.3,2.3,97,0.00,BKN,,0.01,WeatherDisplay:10.37,2013-05-23 07:37:00,
2013-05-23 03:42:00,65.0,64.1,29.88,SW,217,1.0,2.3,97,0.00,BKN,,0.01,WeatherDisplay:10.37,2013-05-23 07:42:00,
2013-05-23 03:47:00,65.0,63.8,29.88,SSW,212,2.0,4.6,96,0.00,BKN,,0.01,WeatherDisplay:10.37,2013-05-23 07:47:00,
2013-05-23 03:52:00,65.1,63.9,29.88,SW,222,1.4,3.5,96,0.00,BKN,,0.01,WeatherDisplay:10.37,2013-05-23 07:52:00,
2013-05-23 03:57:00,65.1,63.9,29.88,SW,230,3.6,4.6,96,0.00,BKN,,0.01,WeatherDisplay:10.37,2013-05-23 07:57:00,
2013-05-23 04:02:00,65.1,63.9,29.89,SW,215,2.5,3.5,96,0.00,BKN,,0.01,WeatherDisplay:10.37,2013-05-23 08:02:00,
2013-05-23 04:07:00,65.2,64.0,29.89,SSW,196,1.9,5.0,96,0.00,BKN,,0.01,WeatherDisplay:10.37,2013-05-23 08:07:00,
2013-05-23 04:12:00,65.2,64.0,29.89,SW,229,1.1,3.5,96,0.00,BKN,,0.01,WeatherDisplay:10.37,2013-05-23 08:12:00,
2013-05-23 04:17:00,65.1,63.9,29.89,WSW,250,0.5,2.3,96,0.00,BKN,,0.01,WeatherDisplay:10.37,2013-05-23 08:17:00,
2013-05-23 04:22:00,64.9,63.7,29.89,WSW,250,0.6,2.0,96,0.00,BKN,,0.01,WeatherDisplay:10.37,2013-05-23 08:22:00,
2013-05-23 04:27:00,64.7,63.5,29.89,WSW,242,0.4,2.3,96,0.00,BKN,,0.01,WeatherDisplay:10.37,2013-05-23 08:27:00,
2013-05-23 04:32:00,64.5,63.3,29.89,SSW,192,2.0,4.0,96,0.00,BKN,,0.01,WeatherDisplay:10.37,2013-05-23 08:32:00,
2013-05-23 04:37:00,64.3,63.1,29.89,South,177,0.0,0.0,96,0.00,BKN,,0.01,WeatherDisplay:10.37,2013-05-23 08:37:00,
2013-05-23 04:42:00,64.1,62.9,29.89,SSW,201,0.4,2.0,96,0.00,BKN,,0.01,WeatherDisplay:10.37,2013-05-23 08:42:00,
2013-05-23 04:47:00,63.9,62.7,29.89,SW,219,1.4,2.3,96,0.00,BKN,,0.01,WeatherDisplay:10.37,2013-05-23 08:47:00,
2013-05-23 04:52:00,63.8,62.6,29.89,SW,224,0.9,2.3,96,0.00,BKN,,0.01,WeatherDisplay:10.37,2013-05-23 08:52:00,
2013-05-23 04:57:00,63.7,62.5,29.89,SSW,205,1.3,3.5,96,0.00,BKN,,0.01,WeatherDisplay:10.37,2013-05-23 08:57:00,
2013-05-23 05:02:00,63.6,62.4,29.90,SSW,195,1.9,3.5,96,0.00,CLR,,0.01,WeatherDisplay:10.37,2013-05-23 09:02:00,
2013-05-23 05:07:00,63.5,62.3,29.90,SSW,197,2.4,3.5,96,0.00,CLR,,0.01,WeatherDisplay:10.37,2013-05-23 09:07:00,
2013-05-23 05:12:00,63.5,62.6,29.90,SSW,212,1.6,3.5,97,0.00,CLR,,0.01,WeatherDisplay:10.37,2013-05-23 09:12:00,
2013-05-23 05:17:00,63.5,62.6,29.90,SSW,199,2.4,3.5,97,0.00,CLR,,0.01,WeatherDisplay:10.37,2013-05-23 09:17:00,
2013-05-23 05:22:00,63.5,62.6,29.90,SSW,201,2.1,3.5,97,0.00,BKN,,0.01,WeatherDisplay:10.37,2013-05-23 09:22:00,
2013-05-23 05:27:00,63.5,62.6,29.90,South,186,2.2,3.5,97,0.00,BKN,,0.01,WeatherDisplay:10.37,2013-05-23 09:27:00,
2013-05-23 05:32:00,63.5,62.6,29.90,South,187,1.9,3.5,97,0.00,BKN,,0.01,WeatherDisplay:10.37,2013-05-23 09:32:00,
2013-05-23 05:37:00,63.5,62.6,29.90,South,181,2.8,4.6,97,0.00,BKN,,0.01,WeatherDisplay:10.37,2013-05-23 09:37:00,
2013-05-23 05:42:00,63.4,62.5,29.90,SW,214,1.6,2.3,97,0.00,BKN,,0.01,WeatherDisplay:10.37,2013-05-23 09:42:00,
2013-05-23 05:47:00,63.4,62.5,29.90,SW,217,0.6,3.5,97,0.00,BKN,,0.01,WeatherDisplay:10.37,2013-05-23 09:47:00,
2013-05-23 05:52:00,63.2,62.3,29.90,South,184,1.8,3.5,97,0.00,BKN,,0.01,WeatherDisplay:10.37,2013-05-23 09:52:00,
2013-05-23 05:57:00,63.2,62.3,29.90,SSW,202,1.2,3.5,97,0.00,BKN,,0.01,WeatherDisplay:10.37,2013-05-23 09:57:00,
2013-05-23 06:02:00,63.2,62.3,29.91,SSW,196,1.3,3.5,97,0.00,OVC,,0.01,WeatherDisplay:10.37,2013-05-23 10:02:00,
2013-05-23 06:07:00,63.2,62.3,29.91,SW,216,2.2,3.5,97,0.00,OVC,,0.01,WeatherDisplay:10.37,2013-05-23 10:07:00,
2013-05-23 06:12:00,63.1,62.2,29.91,SSW,202,2.5,3.5,97,0.00,OVC,,0.01,WeatherDisplay:10.37,2013-05-23 10:12:00,
2013-05-23 06:17:00,63.1,62.2,29.91,South,186,3.0,4.6,97,0.00,OVC,,0.01,WeatherDisplay:10.37,2013-05-23 10:17:00,
2013-05-23 06:22:00,63.0,62.1,29.91,SSW,209,2.9,4.6,97,0.00,OVC,,0.01,WeatherDisplay:10.37,2013-05-23 10:22:00,
2013-05-23 06:27:00,63.0,62.1,29.91,SSW,197,3.8,4.0,97,0.00,OVC,,0.01,WeatherDisplay:10.37,2013-05-23 10:27:00,
2013-05-23 06:32:00,63.2,62.3,29.92,SSW,213,4.3,6.9,97,0.00,OVC,,0.01,WeatherDisplay:10.37,2013-05-23 10:32:00,
2013-05-23 06:37:00,63.1,62.2,29.92,WSW,241,4.1,4.6,97,0.00,OVC,,0.01,WeatherDisplay:10.37,2013-05-23 10:37:00,
2013-05-23 06:42:00,63.1,62.2,29.92,SSW,196,3.1,5.0,97,0.00,BKN,,0.01,WeatherDisplay:10.37,2013-05-23 10:42:00,
2013-05-23 06:47:00,63.1,62.2,29.92,SW,233,1.2,3.5,97,0.00,BKN,,0.01,WeatherDisplay:10.37,2013-05-23 10:47:00,
2013-05-23 06:53:00,63.1,62.2,29.92,SSW,195,2.8,4.0,97,0.00,BKN,,0.01,WeatherDisplay:10.37,2013-05-23 10:53:00,
2013-05-23 06:58:00,63.1,62.2,29.92,SW,220,2.9,4.6,97,0.00,BKN,,0.01,WeatherDisplay:10.37,2013-05-23 10:58:00,
2013-05-23 07:03:00,63.2,62.3,29.93,SW,216,2.7,5.8,97,0.00,OVC,,0.01,WeatherDisplay:10.37,2013-05-23 11:03:00,
2013-05-23 07:08:00,63.2,62.3,29.93,SW,223,1.2,4.6,97,0.00,OVC,,0.01,WeatherDisplay:10.37,2013-05-23 11:08:00,
2013-05-23 07:13:00,63.2,62.3,29.93,SSW,202,3.5,5.8,97,0.00,OVC,,0.01,WeatherDisplay:10.37,2013-05-23 11:13:00,
2013-05-23 07:18:00,63.4,62.8,29.93,SW,236,2.6,6.9,98,0.00,OVC,,0.01,WeatherDisplay:10.37,2013-05-23 11:18:00,
2013-05-23 07:23:00,63.4,62.8,29.93,SSW,208,3.6,5.0,98,0.00,OVC,,0.01,WeatherDisplay:10.37,2013-05-23 11:23:00,
2013-05-23 07:28:00,63.6,63.0,29.93,SSW,206,3.6,5.8,98,0.00,OVC,,0.01,WeatherDisplay:10.37,2013-05-23 11:28:00,
2013-05-23 07:33:00,63.6,63.0,29.94,SW,215,3.3,6.9,98,0.00,OVC,,0.01,WeatherDisplay:10.37,2013-05-23 11:33:00,
2013-05-23 07:38:00,63.8,63.2,29.94,South,190,3.0,4.6,98,0.00,OVC,,0.01,WeatherDisplay:10.37,2013-05-23 11:38:00,
2013-05-23 07:43:00,63.9,63.3,29.94,SSW,194,2.3,5.0,98,0.00,OVC,,0.01,WeatherDisplay:10.37,2013-05-23 11:43:00,
2013-05-23 07:48:00,64.1,63.5,29.94,SSW,205,1.0,3.5,98,0.00,OVC,,0.01,WeatherDisplay:10.37,2013-05-23 11:48:00,
2013-05-23 07:53:00,64.2,63.6,29.94,SW,234,2.9,4.6,98,0.00,OVC,,0.01,WeatherDisplay:10.37,2013-05-23 11:53:00,
2013-05-23 07:58:00,64.4,63.8,29.94,WSW,239,2.2,3.5,98,0.00,OVC,,0.01,WeatherDisplay:10.37,2013-05-23 11:58:00,
2013-05-23 08:03:00,64.8,64.2,29.94,SSW,209,1.8,3.5,98,0.00,OVC,,0.01,WeatherDisplay:10.37,2013-05-23 12:03:00,
2013-05-23 08:08:00,65.1,64.2,29.94,South,182,3.9,5.8,97,0.00,OVC,,0.01,WeatherDisplay:10.37,2013-05-23 12:08:00,
2013-05-23 08:13:00,65.4,64.5,29.94,SSW,207,2.4,4.0,97,0.00,OVC,,0.01,WeatherDisplay:10.37,2013-05-23 12:13:00,
2013-05-23 08:18:00,65.9,64.7,29.94,SW,215,4.0,4.6,96,0.00,OVC,,0.01,WeatherDisplay:10.37,2013-05-23 12:18:00,
2013-05-23 08:23:00,66.2,64.7,29.94,SW,230,4.9,6.0,95,0.00,OVC,,0.01,WeatherDisplay:10.37,2013-05-23 12:23:00,
2013-05-23 08:28:00,66.6,64.8,29.94,SSW,197,1.7,2.3,94,0.00,OVC,,0.01,WeatherDisplay:10.37,2013-05-23 12:28:00,
2013-05-23 08:33:00,67.1,65.0,29.94,SW,225,2.2,3.5,93,0.00,OVC,,0.01,WeatherDisplay:10.37,2013-05-23 12:33:00,
2013-05-23 08:38:00,67.7,65.0,29.94,South,188,2.5,5.0,91,0.00,OVC,,0.01,WeatherDisplay:10.37,2013-05-23 12:38:00,
2013-05-23 08:43:00,68.1,65.4,29.94,WNW,284,1.4,3.5,91,0.00,OVC,,0.01,WeatherDisplay:10.37,2013-05-23 12:43:00,
2013-05-23 08:48:00,68.3,65.3,29.94,SW,219,3.7,5.8,90,0.00,OVC,,0.01,WeatherDisplay:10.37,2013-05-23 12:48:00,
2013-05-23 08:53:00,68.5,65.1,29.94,SW,232,4.1,5.0,89,0.00,OVC,,0.01,WeatherDisplay:10.37,2013-05-23 12:53:00,
2013-05-23 08:58:00,68.9,65.2,29.94,WSW,247,2.9,4.6,88,0.00,OVC,,0.01,WeatherDisplay:10.37,2013-05-23 12:58:00,
2013-05-23 09:03:00,69.2,65.2,29.94,SSW,209,1.5,4.0,87,0.00,OVC,,0.01,WeatherDisplay:10.37,2013-05-23 13:03:00,
2013-05-23 09:08:00,69.5,65.5,29.94,West,278,4.4,7.0,87,0.00,OVC,,0.01,WeatherDisplay:10.37,2013-05-23 13:08:00,
2013-05-23 09:13:00,69.8,65.1,29.94,South,190,2.5,4.6,85,0.00,SCT,,0.01,WeatherDisplay:10.37,2013-05-23 13:13:00,
2013-05-23 09:18:00,70.2,65.1,29.94,SW,223,3.2,4.6,84,0.00,SCT,,0.01,WeatherDisplay:10.37,2013-05-23 13:18:00,
2013-05-23 09:23:00,70.5,66.1,29.94,South,184,2.3,7.0,86,0.00,SCT,,0.01,WeatherDisplay:10.37,2013-05-23 13:23:00,
2013-05-23 09:28:00,70.7,65.6,29.94,SW,236,1.4,4.0,84,0.00,SCT,,0.01,WeatherDisplay:10.37,2013-05-23 13:28:00,
2013-05-23 09:33:00,70.7,65.3,29.94,SSW,205,3.4,5.8,83,0.00,SCT,,0.01,WeatherDisplay:10.37,2013-05-23 13:33:00,
2013-05-23 09:38:00,70.8,65.7,29.94,South,188,4.0,7.0,84,0.00,SCT,,0.01,WeatherDisplay:10.37,2013-05-23 13:38:00,
2013-05-23 09:43:00,71.0,66.3,29.94,SSE,157,2.7,3.5,85,0.00,SCT,,0.01,WeatherDisplay:10.37,2013-05-23 13:43:00,
2013-05-23 09:48:00,71.4,66.0,29.95,SE,143,1.3,4.0,83,0.00,SCT,,0.01,WeatherDisplay:10.37,2013-05-23 13:48:00,
2013-05-23 09:53:00,71.8,65.7,29.95,SSW,194,1.8,10.4,81,0.00,SCT,,0.01,WeatherDisplay:10.37,2013-05-23 13:53:00,
2013-05-23 09:58:00,72.1,64.9,29.95,SSW,207,2.6,4.6,78,0.00,SCT,,0.01,WeatherDisplay:10.37,2013-05-23 13:58:00,
2013-05-23 10:03:00,72.3,67.2,29.94,SSE,168,1.8,3.5,84,0.00,SCT,,0.01,WeatherDisplay:10.37,2013-05-23 14:03:00,
2013-05-23 10:08:00,72.1,66.3,29.94,WSW,238,3.7,5.8,82,0.00,SCT,,0.01,WeatherDisplay:10.37,2013-05-23 14:08:00,
2013-05-23 10:13:00,72.6,65.7,29.94,WSW,238,3.1,5.8,79,0.00,FEW,,0.01,WeatherDisplay:10.37,2013-05-23 14:13:00,
2013-05-23 10:18:00,73.4,67.9,29.94,SW,220,3.2,6.9,83,0.00,FEW,,0.01,WeatherDisplay:10.37,2013-05-23 14:18:00,
2013-05-23 10:23:00,73.0,65.4,29.94,West,269,3.1,4.0,77,0.00,FEW,,0.01,WeatherDisplay:10.37,2013-05-23 14:23:00,
2013-05-23 10:28:00,73.7,66.0,29.94,West,273,4.6,9.2,77,0.00,FEW,,0.01,WeatherDisplay:10.37,2013-05-23 14:28:00,
2013-05-23 10:33:00,73.7,64.9,29.94,SSW,200,2.2,5.8,74,0.00,FEW,,0.01,WeatherDisplay:10.37,2013-05-23 14:33:00,
2013-05-23 10:38:00,74.5,67.6,29.94,West,269,4.6,7.0,79,0.00,FEW,,0.01,WeatherDisplay:10.37,2013-05-23 14:38:00,
2013-05-23 10:43:00,74.9,66.1,29.94,WSW,238,4.6,5.8,74,0.00,FEW,,0.01,WeatherDisplay:10.37,2013-05-23 14:43:00,
2013-05-23 10:48:00,74.3,65.1,29.94,SW,227,4.1,5.0,73,0.00,FEW,,0.01,WeatherDisplay:10.37,2013-05-23 14:48:00,
2013-05-23 10:53:00,74.9,65.3,29.94,WNW,288,5.9,6.9,72,0.00,FEW,,0.01,WeatherDisplay:10.37,2013-05-23 14:53:00,
2013-05-23 10:58:00,75.2,64.7,29.94,West,277,5.4,8.0,70,0.00,FEW,,0.01,WeatherDisplay:10.37,2013-05-23 14:58:00,
2013-05-23 11:03:00,75.0,63.3,29.93,SSW,196,3.6,5.8,67,0.00,FEW,,0.01,WeatherDisplay:10.37,2013-05-23 15:03:00,
2013-05-23 11:08:00,74.6,65.0,29.93,West,266,2.7,10.4,72,0.00,FEW,,0.01,WeatherDisplay:10.37,2013-05-23 15:08:00,
2013-05-23 11:13:00,75.4,66.1,29.93,WSW,250,4.1,6.0,73,0.00,CLR,,0.01,WeatherDisplay:10.37,2013-05-23 15:13:00,
2013-05-23 11:18:00,75.8,65.7,29.93,WSW,238,3.2,8.1,71,0.00,CLR,,0.01,WeatherDisplay:10.37,2013-05-23 15:18:00,
2013-05-23 11:23:00,74.7,64.7,29.93,SW,215,1.4,3.5,71,0.00,CLR,,0.01,WeatherDisplay:10.37,2013-05-23 15:23:00,
2013-05-23 11:28:00,75.0,64.5,29.93,NNW,327,3.6,6.9,70,0.00,CLR,,0.01,WeatherDisplay:10.37,2013-05-23 15:28:00,
2013-05-23 11:33:00,76.1,65.2,29.93,South,171,2.4,4.0,69,0.00,CLR,,0.01,WeatherDisplay:10.37,2013-05-23 15:33:00,
2013-05-23 11:38:00,76.3,66.2,29.93,West,259,6.0,8.1,71,0.00,CLR,,0.01,WeatherDisplay:10.37,2013-05-23 15:38:00,
2013-05-23 11:43:00,76.3,65.8,29.93,South,190,5.5,8.0,70,0.00,CLR,,0.01,WeatherDisplay:10.37,2013-05-23 15:43:00,
2013-05-23 11:48:00,76.3,64.5,29.93,South,187,6.8,8.1,67,0.00,CLR,,0.01,WeatherDisplay:10.37,2013-05-23 15:48:00,
2013-05-23 11:53:00,76.3,66.2,29.93,WSW,246,3.1,11.5,71,0.00,CLR,,0.01,WeatherDisplay:10.37,2013-05-23 15:53:00,
2013-05-23 11:58:00,76.2,64.4,29.93,WNW,300,3.5,3.5,67,0.00,CLR,,0.01,WeatherDisplay:10.37,2013-05-23 15:58:00,
2013-05-23 12:03:00,76.4,63.8,29.93,WSW,254,3.0,4.0,65,0.00,CLR,,0.01,WeatherDisplay:10.37,2013-05-23 16:03:00,
2013-05-23 12:08:00,77.5,65.2,29.93,SSW,194,4.7,6.9,66,0.00,CLR,,0.01,WeatherDisplay:10.37,2013-05-23 16:08:00,
2013-05-23 12:14:00,76.1,64.3,29.93,South,183,2.8,10.4,67,0.00,SCT,,0.01,WeatherDisplay:10.37,2013-05-23 16:14:00,
2013-05-23 12:19:00,74.5,63.2,29.93,SSW,212,3.7,6.9,68,0.00,SCT,,0.01,WeatherDisplay:10.37,2013-05-23 16:19:00,
2013-05-23 12:24:00,74.5,64.9,29.93,West,267,1.6,5.8,72,0.00,SCT,,0.01,WeatherDisplay:10.37,2013-05-23 16:24:00,
2013-05-23 12:29:00,75.3,63.2,29.93,SSW,192,2.2,6.9,66,0.00,SCT,,0.01,WeatherDisplay:10.37,2013-05-23 16:29:00,
2013-05-23 12:34:00,74.7,63.9,29.92,SSE,148,4.3,4.3,69,0.00,SCT,,0.01,WeatherDisplay:10.37,2013-05-23 16:34:00,
2013-05-23 12:39:00,75.9,65.4,29.92,SSW,192,5.4,9.2,70,0.00,SCT,,0.01,WeatherDisplay:10.37,2013-05-23 16:39:00,
2013-05-23 12:44:00,74.8,64.8,29.92,SSE,165,0.0,3.5,71,0.00,SCT,,0.01,WeatherDisplay:10.37,2013-05-23 16:44:00,
2013-05-23 12:49:00,74.7,66.2,29.91,SSW,205,3.9,8.1,75,0.00,SCT,,0.01,WeatherDisplay:10.37,2013-05-23 16:49:00,
2013-05-23 12:54:00,74.4,64.4,29.91,SSW,201,4.2,6.9,71,0.00,SCT,,0.01,WeatherDisplay:10.37,2013-05-23 16:54:00,
2013-05-23 12:59:00,75.8,65.3,29.91,WSW,250,1.1,3.5,70,0.00,SCT,,0.01,WeatherDisplay:10.37,2013-05-23 16:59:00,
2013-05-23 13:04:00,78.0,65.7,29.91,SSE,154,4.6,9.0,66,0.00,SCT,,0.01,WeatherDisplay:10.37,2013-05-23 17:04:00,
2013-05-23 13:09:00,77.4,65.6,29.91,SSW,211,6.3,11.5,67,0.00,SCT,,0.01,WeatherDisplay:10.37,2013-05-23 17:09:00,
2013-05-23 13:14:00,77.2,64.1,29.91,SSE,159,4.1,5.8,64,0.00,BKN,,0.01,WeatherDisplay:10.37,2013-05-23 17:14:00,
2013-05-23 13:19:00,76.8,63.2,29.90,South,188,6.8,10.4,63,0.00,BKN,,0.01,WeatherDisplay:10.37,2013-05-23 17:19:00,
2013-05-23 13:24:00,77.6,65.3,29.90,SSW,202,6.9,13.8,66,0.00,BKN,,0.01,WeatherDisplay:10.37,2013-05-23 17:24:00,
2013-05-23 13:29:00,78.5,63.0,29.90,South,187,7.1,11.0,59,0.00,BKN,,0.01,WeatherDisplay:10.37,2013-05-23 17:29:00,
2013-05-23 13:34:00,77.4,62.4,29.89,SW,215,4.3,6.9,60,0.00,BKN,,0.01,WeatherDisplay:10.37,2013-05-23 17:34:00,
2013-05-23 13:39:00,77.8,65.5,29.89,South,169,4.3,10.4,66,0.00,BKN,,0.01,WeatherDisplay:10.37,2013-05-23 17:39:00,
2013-05-23 13:44:00,76.9,66.8,29.89,SW,219,2.7,3.5,71,0.00,BKN,,0.01,WeatherDisplay:10.37,2013-05-23 17:44:00,
2013-05-23 13:49:00,76.3,64.5,29.89,SW,229,6.1,9.0,67,0.00,BKN,,0.01,WeatherDisplay:10.37,2013-05-23 17:49:00,
2013-05-23 13:54:00,77.4,63.4,29.89,WNW,284,3.0,6.9,62,0.00,BKN,,0.01,WeatherDisplay:10.37,2013-05-23 17:54:00,
2013-05-23 13:59:00,78.5,65.3,29.89,WSW,257,6.3,9.2,64,0.00,BKN,,0.01,WeatherDisplay:10.37,2013-05-23 17:59:00,
2013-05-23 14:04:00,77.3,61.4,29.89,SSW,197,3.3,5.8,58,0.00,BKN,,0.01,WeatherDisplay:10.37,2013-05-23 18:04:00,
2013-05-23 14:09:00,77.2,64.1,29.89,SSW,203,4.5,7.0,64,0.00,BKN,,0.01,WeatherDisplay:10.37,2013-05-23 18:09:00,
2013-05-23 14:14:00,78.6,63.6,29.89,SSW,213,3.8,4.6,60,0.00,BKN,,0.01,WeatherDisplay:10.37,2013-05-23 18:14:00,
2013-05-23 14:19:00,80.0,66.3,29.89,WNW,290,2.1,3.5,63,0.00,BKN,,0.01,WeatherDisplay:10.37,2013-05-23 18:19:00,
2013-05-23 14:24:00,80.3,62.7,29.89,West,262,3.2,5.8,55,0.00,BKN,,0.01,WeatherDisplay:10.37,2013-05-23 18:24:00,
2013-05-23 14:29:00,79.8,62.7,29.89,WNW,298,5.5,10.4,56,0.00,BKN,,0.01,WeatherDisplay:10.37,2013-05-23 18:29:00,
2013-05-23 14:34:00,78.0,62.0,29.89,SW,216,8.3,15.0,58,0.00,BKN,,0.01,WeatherDisplay:10.37,2013-05-23 18:34:00,
2013-05-23 14:39:00,79.4,62.3,29.89,SSW,211,6.9,11.5,56,0.00,BKN,,0.01,WeatherDisplay:10.37,2013-05-23 18:39:00,
2013-05-23 14:44:00,79.9,64.8,29.89,WSW,242,5.8,8.1,60,0.00,BKN,,0.01,WeatherDisplay:10.37,2013-05-23 18:44:00,
2013-05-23 14:49:00,80.4,63.8,29.89,SW,216,6.9,15.0,57,0.00,BKN,,0.01,WeatherDisplay:10.37,2013-05-23 18:49:00,
2013-05-23 14:54:00,80.6,62.4,29.89,West,279,7.3,11.5,54,0.00,BKN,,0.01,WeatherDisplay:10.37,2013-05-23 18:54:00,
2013-05-23 14:59:00,80.1,64.0,29.89,SW,225,3.6,6.9,58,0.00,BKN,,0.01,WeatherDisplay:10.37,2013-05-23 18:59:00,
2013-05-23 15:04:00,80.8,62.1,29.88,South,188,10.2,17.3,53,0.00,BKN,,0.01,WeatherDisplay:10.37,2013-05-23 19:04:00,
2013-05-23 15:09:00,79.7,61.1,29.88,WSW,246,6.4,10.4,53,0.00,BKN,,0.01,WeatherDisplay:10.37,2013-05-23 19:09:00,
2013-05-23 15:14:00,78.1,62.6,29.88,WSW,248,7.1,9.2,59,0.00,BKN,,0.01,WeatherDisplay:10.37,2013-05-23 19:14:00,
2013-05-23 15:19:00,77.3,64.6,29.89,WNW,286,3.4,4.6,65,0.00,BKN,,0.01,WeatherDisplay:10.37,2013-05-23 19:19:00,
2013-05-23 15:24:00,78.8,65.1,29.89,SSE,165,8.1,9.2,63,0.00,BKN,,0.01,WeatherDisplay:10.37,2013-05-23 19:24:00,
2013-05-23 15:29:00,79.7,64.6,29.89,SSW,196,5.4,11.5,60,0.00,BKN,,0.01,WeatherDisplay:10.37,2013-05-23 19:29:00,
2013-05-23 15:34:00,80.2,63.6,29.88,West,271,8.8,11.5,57,0.00,BKN,,0.01,WeatherDisplay:10.37,2013-05-23 19:34:00,
2013-05-23 15:39:00,80.5,66.3,29.88,WNW,298,5.8,10.4,62,0.00,BKN,,0.01,WeatherDisplay:10.37,2013-05-23 19:39:00,
2013-05-23 15:44:00,80.4,61.7,29.88,NW,311,4.9,8.1,53,0.00,BKN,,0.01,WeatherDisplay:10.37,2013-05-23 19:44:00,
2013-05-23 15:49:00,80.6,61.9,29.88,SSW,207,10.2,17.3,53,0.00,BKN,,0.01,WeatherDisplay:10.37,2013-05-23 19:49:00,
2013-05-23 15:54:00,80.6,62.4,29.88,West,270,8.6,11.5,54,0.00,BKN,,0.01,WeatherDisplay:10.37,2013-05-23 19:54:00,
2013-05-23 15:59:00,79.4,60.2,29.88,WSW,252,6.2,12.7,52,0.00,BKN,,0.01,WeatherDisplay:10.37,2013-05-23 19:59:00,
2013-05-23 16:04:00,78.4,61.9,29.88,NW,309,3.8,5.8,57,0.00,BKN,,0.01,WeatherDisplay:10.37,2013-05-23 20:04:00,
2013-05-23 16:09:00,78.0,62.0,29.88,SW,223,4.5,11.0,58,0.00,BKN,,0.01,WeatherDisplay:10.37,2013-05-23 20:09:00,
2013-05-23 16:14:00,77.3,59.4,29.88,WNW,286,5.8,11.5,54,0.00,BKN,,0.01,WeatherDisplay:10.37,2013-05-23 20:14:00,
2013-05-23 16:19:00,78.4,62.4,29.88,WNW,285,9.9,17.3,58,0.00,BKN,,0.01,WeatherDisplay:10.37,2013-05-23 20:19:00,
2013-05-23 16:24:00,79.0,63.0,29.88,WNW,300,5.2,12.7,58,0.00,BKN,,0.01,WeatherDisplay:10.37,2013-05-23 20:24:00,
2013-05-23 16:29:00,79.2,62.7,29.88,WSW,257,8.6,13.8,57,0.00,BKN,,0.01,WeatherDisplay:10.37,2013-05-23 20:29:00,
2013-05-23 16:34:00,78.1,61.1,29.88,WSW,247,8.8,16.1,56,0.00,BKN,,0.01,WeatherDisplay:10.37,2013-05-23 20:34:00,
2013-05-23 16:39:00,78.6,62.6,29.88,WSW,247,5.4,17.3,58,0.00,BKN,,0.01,WeatherDisplay:10.37,2013-05-23 20:39:00,
2013-05-23 16:44:00,79.0,62.0,29.88,WNW,301,7.8,12.7,56,0.00,BKN,,0.01,WeatherDisplay:10.37,2013-05-23 20:44:00,
2013-05-23 16:49:00,78.8,60.7,29.87,NW,319,3.5,6.9,54,0.00,BKN,,0.01,WeatherDisplay:10.37,2013-05-23 20:49:00,
2013-05-23 16:54:00,78.8,62.3,29.87,WNW,294,8.0,11.5,57,0.00,BKN,,0.01,WeatherDisplay:10.37,2013-05-23 20:54:00,
2013-05-23 16:59:00,78.6,61.6,29.87,WSW,239,5.0,15.0,56,0.00,BKN,,0.01,WeatherDisplay:10.37,2013-05-23 20:59:00,
2013-05-23 17:04:00,78.4,59.9,29.86,WSW,255,8.2,10.4,53,0.00,BKN,,0.01,WeatherDisplay:10.37,2013-05-23 21:04:00,
2013-05-23 17:09:00,78.1,60.1,29.86,West,262,8.0,16.1,54,0.00,BKN,,0.01,WeatherDisplay:10.37,2013-05-23 21:09:00,
2013-05-23 17:14:00,78.1,60.1,29.87,WSW,241,3.7,5.8,54,0.00,FEW,,0.01,WeatherDisplay:10.37,2013-05-23 21:14:00,
2013-05-23 17:19:00,78.3,60.8,29.87,NW,305,6.4,18.0,55,0.00,FEW,,0.01,WeatherDisplay:10.37,2013-05-23 21:19:00,
2013-05-23 17:24:00,78.0,57.9,29.87,West,274,7.8,15.0,50,0.00,FEW,,0.01,WeatherDisplay:10.37,2013-05-23 21:24:00,
2013-05-23 17:29:00,78.0,58.9,29.88,West,267,4.7,5.0,52,0.00,FEW,,0.01,WeatherDisplay:10.37,2013-05-23 21:29:00,
2013-05-23 17:34:00,77.8,58.2,29.88,WNW,284,7.0,10.0,51,0.00,FEW,,0.01,WeatherDisplay:10.37,2013-05-23 21:34:00,
2013-05-23 17:39:00,77.6,58.0,29.88,WSW,238,7.2,11.5,51,0.00,FEW,,0.01,WeatherDisplay:10.37,2013-05-23 21:39:00,
2013-05-23 17:45:00,77.2,58.7,29.88,WNW,291,10.0,12.0,53,0.00,FEW,,0.01,WeatherDisplay:10.37,2013-05-23 21:45:00,
2013-05-23 17:50:00,76.9,59.0,29.88,SW,216,6.9,16.1,54,0.00,FEW,,0.01,WeatherDisplay:10.37,2013-05-23 21:50:00,
2013-05-23 17:55:00,76.6,58.2,29.88,WNW,283,4.4,15.0,53,0.00,FEW,,0.01,WeatherDisplay:10.37,2013-05-23 21:55:00,
2013-05-23 18:00:00,76.3,58.9,29.89,WNW,286,2.7,11.5,55,0.00,FEW,,0.01,WeatherDisplay:10.37,2013-05-23 22:00:00,
2013-05-23 18:05:00,75.5,57.7,29.89,West,279,7.4,13.8,54,0.00,FEW,,0.01,WeatherDisplay:10.37,2013-05-23 22:05:00,
2013-05-23 18:10:00,74.8,59.0,29.89,West,279,8.0,12.7,58,0.00,FEW,,0.01,WeatherDisplay:10.37,2013-05-23 22:10:00,
2013-05-23 18:15:00,74.5,58.8,29.90,WNW,290,4.8,11.5,58,0.00,BKN,,0.01,WeatherDisplay:10.37,2013-05-23 22:15:00,
2013-05-23 18:20:00,74.4,58.7,29.90,NW,308,5.1,5.1,58,0.00,BKN,,0.01,WeatherDisplay:10.37,2013-05-23 22:20:00,
2013-05-23 18:25:00,74.1,58.9,29.90,WSW,242,9.2,15.0,59,0.00,BKN,,0.01,WeatherDisplay:10.37,2013-05-23 22:25:00,
2013-05-23 18:30:00,74.0,57.3,29.90,West,275,10.4,19.6,56,0.00,BKN,,0.01,WeatherDisplay:10.37,2013-05-23 22:30:00,
2013-05-23 18:35:00,73.7,58.0,29.90,WNW,290,5.7,10.4,58,0.00,BKN,,0.01,WeatherDisplay:10.37,2013-05-23 22:35:00,
2013-05-23 18:40:00,73.5,57.3,29.90,West,265,11.2,19.6,57,0.00,BKN,,0.01,WeatherDisplay:10.37,2013-05-23 22:40:00,
2013-05-23 18:45:00,73.2,58.0,29.90,SW,232,2.0,6.9,59,0.00,BKN,,0.01,WeatherDisplay:10.37,2013-05-23 22:45:00,
2013-05-23 18:50:00,72.9,58.2,29.90,WSW,242,6.2,11.5,60,0.00,BKN,,0.01,WeatherDisplay:10.37,2013-05-23 22:50:00,
2013-05-23 18:55:00,72.8,56.7,29.90,SSW,207,4.1,9.2,57,0.00,BKN,,0.01,WeatherDisplay:10.37,2013-05-23 22:55:00,
2013-05-23 19:00:00,72.7,56.6,29.91,SSW,196,5.2,11.5,57,0.00,BKN,,0.01,WeatherDisplay:10.37,2013-05-23 23:00:00,
2013-05-23 19:05:00,72.4,56.8,29.91,WSW,245,7.5,13.8,58,0.00,BKN,,0.01,WeatherDisplay:10.37,2013-05-23 23:05:00,
2013-05-23 19:10:00,72.2,57.5,29.91,SW,230,7.9,11.5,60,0.00,BKN,,0.01,WeatherDisplay:10.37,2013-05-23 23:10:00,
2013-05-23 19:15:00,71.9,56.8,29.91,WSW,241,8.8,16.1,59,0.00,OVC,,0.01,WeatherDisplay:10.37,2013-05-23 23:15:00,
2013-05-23 19:20:00,71.7,57.1,29.91,SW,214,6.0,12.7,60,0.00,OVC,,0.01,WeatherDisplay:10.37,2013-05-23 23:20:00,
2013-05-23 19:25:00,71.5,56.9,29.91,West,278,6.1,11.5,60,0.00,OVC,,0.01,WeatherDisplay:10.37,2013-05-23 23:25:00,
2013-05-23 19:30:00,71.3,56.7,29.92,WSW,256,3.7,6.9,60,0.00,OVC,,0.01,WeatherDisplay:10.37,2013-05-23 23:30:00,
2013-05-23 19:35:00,71.1,57.4,29.92,West,266,7.3,11.5,62,0.00,OVC,,0.01,WeatherDisplay:10.37,2013-05-23 23:35:00,
2013-05-23 19:40:00,70.9,57.7,29.92,NW,309,3.0,4.6,63,0.00,OVC,,0.01,WeatherDisplay:10.37,2013-05-23 23:40:00,
2013-05-23 19:45:00,70.9,56.3,29.93,West,259,7.1,10.4,60,0.00,OVC,,0.01,WeatherDisplay:10.37,2013-05-23 23:45:00,
2013-05-23 19:50:00,70.8,55.3,29.93,West,268,5.9,8.1,58,0.00,OVC,,0.01,WeatherDisplay:10.37,2013-05-23 23:50:00,
2013-05-23 19:55:00,70.6,54.6,29.93,NW,314,3.2,8.1,57,0.00,OVC,,0.01,WeatherDisplay:10.37,2013-05-23 23:55:00,
2013-05-23 20:00:00,70.3,53.9,29.94,WNW,292,11.2,18.4,56,0.00,OVC,,0.01,WeatherDisplay:10.37,2013-05-24 00:00:00,
2013-05-23 20:05:00,69.9,54.0,29.94,West,281,6.1,12.7,57,0.00,OVC,,0.01,WeatherDisplay:10.37,2013-05-24 00:05:00,
2013-05-23 20:10:00,69.5,54.1,29.94,WSW,248,4.9,10.4,58,0.00,OVC,,0.01,WeatherDisplay:10.37,2013-05-24 00:10:00,
2013-05-23 20:15:00,69.2,53.3,29.94,SSW,200,5.0,10.4,57,0.00,OVC,,0.01,WeatherDisplay:10.37,2013-05-24 00:15:00,
2013-05-23 20:20:00,68.8,53.9,29.94,West,259,9.2,12.7,59,0.00,OVC,,0.01,WeatherDisplay:10.37,2013-05-24 00:20:00,
2013-05-23 20:25:00,68.6,54.2,29.94,WSW,252,5.4,9.2,60,0.00,OVC,,0.01,WeatherDisplay:10.37,2013-05-24 00:25:00,
2013-05-23 20:30:00,68.5,54.5,29.94,West,266,6.4,10.0,61,0.00,OVC,,0.01,WeatherDisplay:10.37,2013-05-24 00:30:00,
2013-05-23 20:35:00,68.4,54.0,29.94,West,279,3.6,5.0,60,0.00,OVC,,0.01,WeatherDisplay:10.37,2013-05-24 00:35:00,
2013-05-23 20:40:00,68.3,54.3,29.94,WSW,248,7.3,11.5,61,0.00,OVC,,0.01,WeatherDisplay:10.37,2013-05-24 00:40:00,
2013-05-23 20:45:00,68.2,54.7,29.94,West,281,8.1,14.0,62,0.00,OVC,,0.01,WeatherDisplay:10.37,2013-05-24 00:45:00,
2013-05-23 20:50:00,68.0,54.5,29.94,West,275,2.2,5.0,62,0.00,OVC,,0.01,WeatherDisplay:10.37,2013-05-24 00:50:00,
2013-05-23 20:55:00,67.9,55.3,29.94,West,269,2.8,6.9,64,0.00,OVC,,0.01,WeatherDisplay:10.37,2013-05-24 00:55:00,
2013-05-23 21:00:00,67.6,55.4,29.95,WNW,289,2.3,3.5,65,0.00,OVC,,0.01,WeatherDisplay:10.37,2013-05-24 01:00:00,
2013-05-23 21:05:00,67.2,54.6,29.95,WNW,289,4.0,6.0,64,0.00,OVC,,0.01,WeatherDisplay:10.37,2013-05-24 01:05:00,
2013-05-23 21:10:00,67.2,55.0,29.95,West,281,2.6,5.0,65,0.00,OVC,,0.01,WeatherDisplay:10.37,2013-05-24 01:10:00,
2013-05-23 21:15:00,66.8,55.1,29.96,West,263,0.6,3.5,66,0.00,FEW,,0.01,WeatherDisplay:10.37,2013-05-24 01:15:00,
2013-05-23 21:20:00,66.4,54.7,29.96,NNW,331,3.7,9.2,66,0.00,FEW,,0.01,WeatherDisplay:10.37,2013-05-24 01:20:00,
2013-05-23 21:25:00,66.3,55.0,29.96,West,273,4.9,9.2,67,0.00,FEW,,0.01,WeatherDisplay:10.37,2013-05-24 01:25:00,
2013-05-23 21:30:00,66.3,55.0,29.96,WNW,292,4.0,5.0,67,0.00,FEW,,0.01,WeatherDisplay:10.37,2013-05-24 01:30:00,
2013-05-23 21:35:00,66.1,54.8,29.96,West,268,1.6,3.5,67,0.00,FEW,,0.01,WeatherDisplay:10.37,2013-05-24 01:35:00,
2013-05-23 21:40:00,65.8,54.9,29.96,NW,325,5.2,9.2,68,0.00,FEW,,0.01,WeatherDisplay:10.37,2013-05-24 01:40:00,
2013-05-23 21:45:00,65.8,55.3,29.96,WNW,292,4.0,5.8,69,0.00,FEW,,0.01,WeatherDisplay:10.37,2013-05-24 01:45:00,
2013-05-23 21:50:00,65.9,55.4,29.96,West,279,4.5,8.1,69,0.00,FEW,,0.01,WeatherDisplay:10.37,2013-05-24 01:50:00,
2013-05-23 21:55:00,65.9,55.4,29.96,NW,316,3.9,6.9,69,0.00,FEW,,0.01,WeatherDisplay:10.37,2013-05-24 01:55:00,
2013-05-23 22:00:00,66.0,55.9,29.97,West,281,5.6,6.0,70,0.00,FEW,,0.01,WeatherDisplay:10.37,2013-05-24 02:00:00,
2013-05-23 22:05:00,66.0,55.5,29.97,West,275,6.7,8.1,69,0.00,OVC,,0.01,WeatherDisplay:10.37,2013-05-24 02:05:00,
2013-05-23 22:10:00,65.9,55.0,29.97,West,267,5.4,8.0,68,0.00,OVC,,0.01,WeatherDisplay:10.37,2013-05-24 02:10:00,
2013-05-23 22:15:00,65.9,55.0,29.97,North,355,5.7,6.9,68,0.00,OVC,,0.01,WeatherDisplay:10.37,2013-05-24 02:15:00,
2013-05-23 22:20:00,65.8,55.3,29.97,West,272,3.5,9.0,69,0.00,OVC,,0.01,WeatherDisplay:10.37,2013-05-24 02:20:00,
2013-05-23 22:25:00,65.6,54.8,29.97,WNW,299,5.7,10.4,68,0.00,OVC,,0.01,WeatherDisplay:10.37,2013-05-24 02:25:00,
2013-05-23 22:30:00,65.2,54.4,29.97,NNW,339,2.9,4.6,68,0.00,OVC,,0.01,WeatherDisplay:10.37,2013-05-24 02:30:00,
2013-05-23 22:35:00,65.0,54.6,29.97,WNW,286,0.3,5.8,69,0.00,OVC,,0.01,WeatherDisplay:10.37,2013-05-24 02:35:00,
2013-05-23 22:40:00,64.7,54.3,29.97,NW,317,1.9,2.3,69,0.00,OVC,,0.01,WeatherDisplay:10.37,2013-05-24 02:40:00,
2013-05-23 22:45:00,64.4,54.4,29.98,WNW,299,2.7,5.8,70,0.00,OVC,,0.01,WeatherDisplay:10.37,2013-05-24 02:45:00,
2013-05-23 22:51:00,64.3,53.9,29.98,WNW,283,0.2,2.3,69,0.00,OVC,,0.01,WeatherDisplay:10.37,2013-05-24 02:51:00,
2013-05-23 22:56:00,64.1,54.5,29.98,West,259,1.5,4.6,71,0.00,OVC,,0.01,WeatherDisplay:10.37,2013-05-24 02:56:00,
2013-05-23 23:01:00,63.9,54.3,29.99,WNW,292,1.1,3.5,71,0.00,OVC,,0.01,WeatherDisplay:10.37,2013-05-24 03:01:00,
2013-05-23 23:06:00,63.8,54.6,29.99,WNW,296,1.0,2.3,72,0.00,OVC,,0.01,WeatherDisplay:10.37,2013-05-24 03:06:00,
2013-05-23 23:11:00,63.6,54.8,29.99,WNW,293,1.1,2.3,73,0.00,OVC,,0.01,WeatherDisplay:10.37,2013-05-24 03:11:00,
2013-05-23 23:16:00,63.7,55.6,29.99,WNW,288,0.0,1.1,75,0.00,OVC,,0.01,WeatherDisplay:10.37,2013-05-24 03:16:00,
2013-05-23 23:21:00,63.6,54.4,29.99,WNW,288,0.2,1.1,72,0.00,OVC,,0.01,WeatherDisplay:10.37,2013-05-24 03:21:00,
2013-05-23 23:26:00,63.6,55.2,29.99,NNW,329,2.2,3.5,74,0.00,OVC,,0.01,WeatherDisplay:10.37,2013-05-24 03:26:00,
2013-05-23 23:31:00,63.8,55.0,29.99,NW,323,1.7,3.5,73,0.00,OVC,,0.01,WeatherDisplay:10.37,2013-05-24 03:31:00,
2013-05-23 23:36:00,63.9,54.7,29.99,North,350,0.6,2.3,72,0.00,OVC,,0.01,WeatherDisplay:10.37,2013-05-24 03:36:00,
2013-05-23 23:41:00,64.0,54.8,29.99,North,355,2.8,3.5,72,0.00,OVC,,0.01,WeatherDisplay:10.37,2013-05-24 03:41:00,
2013-05-23 23:46:00,64.2,55.0,29.99,NE,34,3.0,4.6,72,0.00,OVC,,0.01,WeatherDisplay:10.37,2013-05-24 03:46:00,
2013-05-23 23:51:00,64.3,54.7,29.99,North,360,5.0,5.8,71,0.00,OVC,,0.01,WeatherDisplay:10.37,2013-05-24 03:51:00,
2013-05-23 23:56:00,64.3,54.7,29.99,NNW,345,3.3,5.8,71,0.00,OVC,,0.01,WeatherDisplay:10.37,2013-05-24 03:56:00,